Погода в Махачкале

Погода в Махачкале : погода сейчас, прогноз погоды и архив. Всё, что Вы хотите узнать о погоде в Махачкале!

Поиск расширенной информации на нашем сайте:

Другие новости

Новости СМИ2

Главная страница сайта

Новости сайта

03.07.2017

Напоминаем, что на нашем специализированном сайте Метеоцентр.Азия вы можете получить высокодетализированные автоматические прогнозы погоды по пунктам России, СНГ и мира в авиационном формате (включающие направление и скорость ветра, видимость, явления погоды, количество и форму облачности, нижнюю и верхнюю границу облачности).


Погода в Махачкале - сегодня

Время (UTC), дата Ветер
(°,м/с) 
Видим.   Явления Облачность Т
(°С)
Тd
(°С)
f(%) Тe
(°С)
Pmin
(гПа)
dP
(гПа)
Po
(мм)
O2
(г/м3)
Тmin Tmax R s Состояние
почвы
03 17.06.18 310 (СЗ) 10 км    8/4 600 м средняя, верхняя 
[Sc|Ac As|Ci fib]
+24.1 +16 61 +34  1007.1  -0.3  757  277  +21        сухая 
06 17.06.18 310 (СЗ) 10 км    10/3 600 м кучево-дожд., средняя, верхняя 
[Cb cap|Ac inh|Cs]
+25.8 +16 55 +26  1008.1             
09 17.06.18 040 (СВ) 10 км    9/3 600 м кучево-дожд., средняя, верхняя 
[Cb cap|Ac inh|Cs]
+25.2 +19 69 +25  1007.8  -0.2             
12 17.06.18 050 (СВ) 10 км    8/4 600 м средняя, верхняя 
[Sc|Ac cast|Ci fib]
+25.1 +18.5 67 +40  1007.9  0.1  758  275           
15 17.06.18 тихо ()   10 км  слаб. ливневой дождь  10/8 600 м кучево-дожд., средняя 
[Cb cap|Ac As]
+22.8 +17.1 70 +35  1009  1.1  758  278    +26.9  0.0     
18 17.06.18 020 (С) 10 км    10/6 600 м средняя 
[Sc|Ac As]
+22.1 +15.4 66 +31  1009.8  0.8  759  280           
21 17.06.18 280 (З) 10 км    10/3 600 м кучево-дожд., средняя, верхняя 
[Cb cap|Ac inh|Cs]
+20.3 +15.9 76 +20  1009.9  0.1             
00 18.06.18 270 (З) 10 км    10/8 600 м средняя 
[Sc|Ac As]
+19.2 +16.6 85 +31  1009.6  -0.3  759  282           
03 18.06.18 270 (З) 20000 м    9/0 средняя, верхняя 
[Ac cast|Ci fib]
+19.9 +16.8 82 +33  1009.6  759  281  +18.8    0.0    сухая 
06 18.06.18 040 (СВ) 20000 м    8/3 600 м кучево-дожд., средняя, верхняя 
[Cb cap|Ac inh|Cs]
+25.1 +15.1 54 +25  1009.4  -0.2        100     
09 18.06.18 060 (СВ) 20000 м    4/3 600 м кучево-дожд., средняя, верхняя 
[Cb cap|Ac inh|Cs]
+25.7 +15.5 53 +26  1009.5  0.1             
12 18.06.18 090 (В) 20000 м    4/1 600 м средняя, верхняя 
[Cu hum|Ac trans|Ci fib]
+25.1 +14.4 51 +32  1009.8  0.2  759  277           
15 18.06.18 100 (В) 20000 м    8/4 600 м кучево-дожд., средняя, верхняя 
[Cb calv|Ac trans|Ci fib]
+23.5 +12 48 +27  1009.9  0.2  759  279      299    замёрзшая 
18 18.06.18 110 (В) 20000 м    6/0 средняя, верхняя 
[Ac trans|Ci fib]
+21.9 +12.2 54 +26  1010.8  0.9  760  281           
21 18.06.18 200 (Ю) 20000 м    3/0 кучево-дожд., средняя, верхняя 
[Cb cap|Ac inh|Cs]
+17 +11.9 72 +18  1009.8  -1             
00 19.06.18 300 (СЗ) 20000 м    8/3 600 м кучево-дожд., средняя, верхняя 
[Cb calv|Ac trans|Ci fib]
+17.4 +11.3 67 +22  1010.3  0.6  759  286           
03 19.06.18 310 (СЗ) 20000 м    9/3 600 м кучево-дожд., средняя, верхняя 
[Cb calv|Ac trans|Ci fib]
+19.8 +12 61 +25  1011.4  760  283  +16.1        сухая 
06 19.06.18 070 (В) 20000 м    10/8 600 м средняя 
[Sc|Ac As]
+23.4 +13.7 54 +30  1012.4  761  280           
09 19.06.18 090 (В) 20000 м    10/6 600 м средняя 
[Sc|Ac As]
+23.9 +13.5 52 +30  1012.8  0.4  761  279           
12 19.06.18 110 (В) 20000 м    9/3 600 м средняя, верхняя 
[Sc|Ac inh|Cs]
+25.1 +11.4 42 +25  1012.7  60.1             
15 19.06.18 120 (ЮВ) 20000 м    6/3 600 м средняя, верхняя 
[Sc|Ac As|Ci fib]
+24.4 +9.9 40 +25  1012.3  -0.5  761  280      259    замёрзшая 
18 19.06.18 140 (ЮВ) 20000 м    3/0 средняя, верхняя 
[Ac As|Ci fib]
+20.7 +12 57 +24  1012.9  0.6  761  283           
21 19.06.18 320 (СЗ) 20000 м    ясно 
+17 +11.8 71 +21  1012.7  0.1  761  287           
00 20.06.18 260 (З) 20000 м    8/3 600 м средняя, верхняя 
[Sc|Ac As|Ci fib]
+16.6 +11.8 73 +21  1013.2  0.4  761  287           
03 20.06.18 290 (З) 20000 м    10/8 600 м средняя 
[Sc|Ac As]
+20 +13.5 66 +26  1013.8  0.6  762  283  +16.3        сухая 
Время (UTC), дата Ветер
(°,м/с) 
Видим.   Явления Облачность Т
(°С)
Тd
(°С)
f(%) Тe
(°С)
Pmin
(гПа)
dP
(гПа)
Po
(мм)
O2
(г/м3)
Тmin Tmax R s Состояние
почвы

Для получения пояснительной информации подведите курсор к названию столбца.

ПОГОДА в Махачкале - архив

Всё, что Вы хотите узнать о погоде в Махачкале - удобно и подробно!

Выберите нужную дату (начиная с 1 января 2015* года) и нажмите кнопку "Найти".
Будут отображены архивные сводки погоды по пункту Махачкала, начиная с указанной даты.


Отображать данные в формате CSV (для использования в таблицах Excel)


Внимание! Наш архив погоды предназначен исключительно для личного некоммерческого использования в познавательных целях. Если Вам необходимы официальные справки о состоянии погоды (для производственных, юридических, коммерческих и т.п. целей), обращайтесь в органы Росгидромета.

*Примечание: данная дата относится к архиву по метеостанциям СССР (Россия, СНГ, Балтия).
Архив по метеостанциям Зарубежной Европы и Азии (кроме Китая) хранится 10 дней, по другим регионам земного шара (Китай, Африка, Америка, Австралия, Океания) - 1 день.

Махачкала - район местоположения метеостанции


Название, широта, долгота, высота метеостанции:
Махачкала 42.8°ш. 47.6°д. 32 м над ур. моря [Российская Федерация]

Дополнительная информация

В oтличие oт бoльшинства пoгoдных сайтoв мы публикуем пoдрoбную метеoинфoрмацию в детальнoм прoфессиoнальнoм фoрмате.

Характеристики температуры и влажнoсти вoздуха измеряются на высoте 2 м в тени вдали oт зданий и деревьев.
Скoрoсть ветра измеряется на высoте 10 м (на урoвне рoста челoвека скoрoсть ветра ниже в 1.5-2 раза). Если метеoстанция нахoдится в гoрoде или в лесу, тo скoрoсть ветра занижена на 2-4 м/с пo сравнению с oткрытым местoм. Скoрoсть ветра над акватoриями крупных рек и oзёр, а также на вершинах хoлмoв на 2-5 м/с выше, чем в oбычных услoвиях.
Атмoсфернoе давление в разных тoчках местнoсти мoжет значительнo oтличаться oт давления на метеoстанции, в зависимoсти oт услoвий рельефа (при пoдъёме на 10 м давление пoнижается примернo на 1 мм рт.ст.).